Wind_Speed
22 22 22 22 22 22 22 22 22 22 22 22 22 22 21 20 20 21 21 21 21 21 21 20 20 21 21 21 21 21 21 21 20 20 21 21 20 19
23 23 23 22 23 23 23 23 23 23 22 22 23 23 23 22 22 21 21 22 22 22 22 22 22 21 21 22 23 23 22 22 22 22 22 21 21 21
25 24 24 24 24 24 24 24 24 24 23 23 23 23 24 24 23 23 22 22 23 23 23 23 23 23 22 23 23 24 23 23 23 23 23 21 21 21
25 25 26 26 27 27 26 25 25 25 25 25 25 25 25 25 24 24 24 24 24 25 25 25 24 24 24 24 24 24 24 24 24 24 23 22 21 21
26 26 26 27 27 27 27 27 26 26 26 26 25 26 25 25 25 25 25 25 25 25 25 25 25 25 24 24 24 24 24 24 23 23 23 22 22 22
26 26 27 28 28 28 28 28 28 28 28 27 27 26 26 26 26 26 26 26 26 26 25 25 25 25 24 24 24 24 24 24 24 23 23 23 23 23
28 28 29 29 29 29 29 30 29 29 29 28 28 27 27 27 27 27 27 27 27 27 26 26 25 25 25 24 24 24 23 24 24 24 24 24 24 24
30 30 30 30 30 30 30 30 30 30 30 29 29 28 28 27 27 28 28 28 28 28 27 27 26 25 25 25 25 24 24 24 24 24 24 24 24 24
31 31 31 31 31 31 31 31 31 31 31 31 30 30 29 29 28 28 28 28 28 28 28 27 27 26 25 25 24 24 24 24 24 25 25 25 25 25
32 31 32 32 32 32 31 32 31 31 31 31 31 30 30 29 29 29 28 27 28 28 27 27 26 25 25 25 25 24 24 24 25 25 25 25 26 26
33 33 32 32 32 33 33 33 32 32 32 32 31 31 30 29 28 29 29 28 27 27 27 27 26 26 25 25 26 25 25 25 26 26 25 26 26 27
34 33 33 33 33 33 34 34 34 33 32 32 31 30 30 29 29 30 30 30 29 29 29 29 28 28 28 27 28 28 27 27 26 27 27 27 27 28
34 34 33 33 34 35 35 36 35 34 33 33 32 31 30 29 29 30 30 30 30 29 29 30 30 30 30 29 29 29 28 27 27 27 27 27 27 28
34 34 34 34 35 35 35 36 35 34 34 34 33 32 32 31 30 30 30 30 29 29 29 28 28 29 29 29 28 28 28 28 27 27 27 27 28 28
34 34 34 34 34 34 34 34 33 33 33 33 32 31 31 30 30 30 30 31 30 29 29 28 28 29 30 29 29 29 28 28 28 28 27 27 28 28
34 33 34 34 34 34 34 33 33 32 32 32 31 30 30 29 29 29 30 30 29 28 28 28 28 28 29 29 28 28 29 28 28 28 28 27 27 28
33 32 33 32 32 32 33 33 32 32 32 32 32 31 31 30 30 29 28 28 28 28 27 27 27 27 27 27 28 28 28 28 28 29 29 28 28 28
32 31 31 31 30 30 31 32 31 31 31 32 32 32 31 30 30 30 30 29 28 28 28 28 28 28 28 27 27 27 28 28 28 28 28 28 28 28
31 30 30 29 29 29 30 30 30 29 30 31 31 31 31 31 31 30 30 29 29 28 28 28 28 29 30 29 29 28 28 28 28 28 28 28 29 29
30 29 28 28 28 29 29 29 29 28 29 30 30 30 30 30 30 31 30 30 29 29 29 29 29 30 30 30 30 30 30 30 29 29 29 29 29 29
28 28 28 28 28 28 28 28 28 29 29 29 29 29 29 29 29 29 29 29 29 29 29 29 29 30 30 30 30 29 30 30 30 30 30 30 30 30
28 28 28 28 28 28 28 28 28 29 30 30 29 29 29 29 28 28 28 29 29 29 29 29 30 30 30 30 30 30 30 30 30 31 31 31 31 31
26 27 28 28 28 29 28 28 28 29 29 29 29 30 30 29 29 28 28 28 29 29 29 29 30 30 30 30 30 30 30 30 31 31 31 31 31 31
Wind_Direction
275 274 273 274 276 276 276 276 277 276 274 275 276 277 277 278 278 278 279 280 278 276 273 271 271 270 268 266 265 263 262 262 262 260 260 260 259 259
274 275 273 272 273 274 276 277 276 276 275 274 276 277 277 278 277 277 276 278 277 276 275 273 272 270 267 266 265 265 263 262 261 261 260 260 258 258
273 274 274 272 273 276 277 277 277 277 276 276 276 277 278 278 277 276 276 276 276 276 276 274 272 270 268 267 266 266 264 263 262 261 259 260 258 257
275 274 274 273 274 275 277 278 278 278 277 276 276 276 277 277 278 277 276 276 275 275 276 274 272 270 268 267 267 265 265 264 262 260 258 258 258 256
276 275 274 274 274 275 276 278 277 278 279 278 277 276 277 276 277 277 277 277 278 277 275 273 271 270 268 267 267 266 265 264 261 259 258 258 257 257
276 276 276 276 276 275 275 276 277 277 278 278 279 278 277 277 275 275 276 277 277 277 275 273 271 269 268 267 267 266 265 263 261 259 257 257 257 257
277 277 276 277 276 275 275 276 276 277 277 278 277 277 276 275 274 274 275 277 277 276 274 271 270 269 267 267 266 266 265 263 259 259 258 257 257 256
277 277 277 276 276 275 274 274 274 275 275 275 275 276 275 276 275 274 274 275 275 275 274 271 269 268 266 265 265 266 266 262 259 258 258 257 256 256
277 278 277 276 276 275 273 273 273 274 274 274 273 274 274 273 274 275 275 275 275 274 272 269 269 268 267 266 265 265 265 264 261 258 258 257 256 256
278 278 278 277 276 276 274 272 272 273 273 273 272 271 272 272 272 274 274 274 274 274 271 269 267 266 265 265 265 265 265 264 261 259 258 257 256 256
277 276 276 276 276 275 274 273 272 272 271 271 270 269 270 270 272 272 271 271 273 273 270 266 264 265 265 265 265 265 264 263 262 260 258 258 256 255
277 276 275 274 275 274 272 272 272 272 270 269 268 267 268 269 269 270 269 270 272 271 269 265 264 264 264 264 265 265 264 263 263 261 259 259 258 258
278 277 276 275 274 273 272 272 272 270 269 267 266 266 266 267 268 269 269 270 272 271 269 267 266 264 263 262 263 264 264 264 262 260 259 259 259 258
280 277 276 276 275 273 272 271 270 268 267 265 265 265 266 267 268 269 270 271 272 271 270 269 267 265 263 260 260 262 263 263 261 259 260 260 259 258
279 278 276 275 275 274 272 270 269 267 267 266 265 264 264 265 267 267 267 269 271 271 271 270 268 266 264 262 262 261 261 261 260 260 260 259 258 257
279 277 276 274 274 273 271 269 268 267 265 265 264 263 263 263 265 265 266 267 267 269 269 269 267 267 266 264 263 262 261 260 259 260 260 260 260 259
279 277 274 273 273 271 269 267 266 265 265 264 263 262 263 263 263 264 265 265 265 266 267 266 265 267 266 265 263 263 263 261 261 260 260 260 259 259
280 278 274 271 270 269 268 267 265 264 264 264 262 261 262 263 263 264 264 263 264 266 266 264 263 264 265 266 265 263 262 260 261 261 260 259 258 257
280 278 274 270 268 268 267 267 264 263 263 262 262 260 260 262 263 262 263 263 263 264 265 264 262 263 265 265 264 263 263 261 260 260 260 259 257 256
278 277 274 271 269 268 268 267 264 263 263 262 261 261 261 261 261 260 261 262 263 264 265 264 264 265 265 264 262 262 263 262 261 261 260 260 258 258
276 274 272 270 269 269 269 267 265 263 262 261 261 260 260 260 260 260 261 262 263 264 264 264 263 264 264 263 263 262 262 261 260 260 261 261 260 259
277 274 273 272 271 270 269 269 266 264 263 261 261 260 259 260 260 260 261 262 262 263 264 264 264 264 262 262 262 262 261 261 260 260 261 262 262 261
277 276 274 272 272 271 269 268 267 266 264 262 261 261 262 261 259 259 261 262 262 263 263 264 264 265 264 263 262 262 262 262 262 261 261 261 261 262
Height
5783 5784 5784 5785 5785 5785 5785 5785 5785 5785 5786 5786 5786 5786 5786 5786 5786 5787 5787 5787 5787 5786 5786 5786 5786 5786 5786 5786 5787 5787 5788 5789 5790 5791 5792 5794 5795 5796
5777 5777 5778 5778 5779 5779 5779 5779 5779 5779 5779 5780 5780 5780 5780 5780 5780 5780 5780 5780 5780 5780 5780 5780 5780 5779 5779 5780 5780 5781 5782 5782 5783 5784 5786 5787 5789 5790
5770 5771 5771 5772 5772 5772 5772 5772 5772 5772 5773 5773 5773 5773 5773 5774 5774 5774 5774 5774 5773 5773 5773 5773 5773 5772 5772 5773 5773 5774 5774 5775 5776 5778 5779 5780 5782 5784
5763 5764 5764 5765 5765 5765 5766 5766 5765 5765 5766 5766 5766 5766 5766 5767 5767 5767 5767 5767 5766 5766 5766 5765 5765 5765 5765 5765 5766 5766 5767 5768 5769 5770 5772 5773 5775 5776
5756 5756 5757 5757 5758 5758 5758 5758 5758 5758 5758 5759 5759 5759 5759 5759 5759 5759 5759 5759 5759 5758 5758 5758 5758 5758 5758 5758 5758 5759 5760 5761 5762 5763 5765 5766 5768 5769
5749 5749 5749 5749 5750 5750 5751 5751 5751 5751 5751 5751 5751 5751 5751 5751 5752 5752 5752 5752 5751 5751 5750 5750 5750 5750 5750 5750 5751 5751 5752 5753 5754 5756 5757 5759 5760 5762
5741 5741 5741 5741 5741 5742 5742 5743 5743 5743 5743 5743 5743 5743 5743 5744 5744 5744 5744 5744 5743 5743 5743 5743 5743 5743 5743 5743 5744 5744 5745 5746 5747 5748 5750 5751 5753 5755
5732 5732 5732 5733 5733 5733 5733 5733 5734 5734 5734 5735 5735 5735 5735 5735 5735 5735 5736 5736 5736 5735 5735 5735 5735 5735 5736 5736 5736 5737 5737 5738 5739 5741 5742 5744 5745 5747
5723 5723 5723 5723 5723 5724 5724 5724 5724 5725 5725 5725 5726 5726 5726 5727 5727 5727 5727 5727 5727 5726 5726 5727 5727 5727 5727 5728 5729 5729 5730 5731 5732 5733 5735 5736 5737 5739
5713 5713 5713 5713 5713 5714 5714 5714 5715 5715 5715 5716 5716 5716 5717 5717 5717 5718 5718 5718 5718 5718 5718 5718 5719 5719 5720 5720 5721 5722 5722 5723 5724 5725 5726 5728 5729 5731
5703 5702 5702 5703 5704 5704 5704 5704 5705 5705 5705 5706 5706 5706 5707 5707 5707 5708 5709 5709 5709 5709 5709 5710 5710 5711 5712 5712 5712 5713 5714 5715 5716 5717 5718 5720 5721 5723
5692 5692 5692 5693 5693 5693 5693 5693 5694 5695 5695 5696 5696 5696 5696 5697 5698 5698 5699 5699 5700 5700 5700 5701 5701 5702 5703 5704 5704 5705 5705 5706 5707 5708 5710 5711 5712 5714
5681 5682 5682 5681 5682 5682 5682 5682 5683 5683 5684 5685 5686 5686 5687 5687 5688 5689 5689 5689 5690 5691 5691 5691 5692 5692 5694 5695 5695 5696 5697 5697 5698 5700 5701 5702 5704 5705
5670 5671 5671 5670 5670 5670 5670 5671 5671 5672 5673 5674 5675 5676 5677 5678 5678 5679 5679 5679 5680 5681 5681 5682 5682 5683 5684 5685 5686 5687 5687 5688 5690 5691 5692 5693 5695 5696
5659 5659 5659 5659 5658 5658 5659 5659 5660 5660 5662 5663 5664 5666 5667 5667 5668 5668 5669 5670 5671 5671 5671 5672 5673 5673 5674 5675 5676 5677 5678 5679 5680 5682 5683 5684 5686 5687
5647 5647 5647 5647 5647 5647 5647 5648 5649 5650 5651 5652 5653 5655 5656 5657 5657 5658 5659 5660 5661 5661 5662 5662 5663 5663 5664 5665 5666 5667 5668 5670 5671 5672 5673 5675 5676 5678
5636 5636 5636 5636 5636 5636 5637 5638 5639 5639 5640 5642 5643 5644 5646 5647 5648 5648 5649 5650 5651 5652 5653 5653 5653 5654 5655 5656 5656 5657 5658 5660 5661 5662 5664 5666 5668 5669
5626 5625 5625 5625 5626 5626 5627 5628 5628 5629 5630 5632 5633 5634 5636 5636 5638 5639 5639 5641 5642 5642 5643 5644 5644 5645 5646 5646 5647 5648 5649 5650 5652 5653 5654 5657 5659 5660
5615 5615 5615 5615 5616 5616 5617 5617 5618 5619 5620 5622 5623 5624 5625 5626 5627 5629 5630 5631 5632 5633 5634 5634 5635 5636 5636 5638 5638 5639 5640 5641 5642 5644 5645 5647 5649 5651
5606 5605 5605 5605 5606 5606 5607 5607 5608 5609 5610 5611 5613 5614 5615 5616 5617 5619 5620 5621 5622 5623 5624 5625 5626 5626 5627 5628 5629 5630 5631 5632 5633 5635 5636 5638 5640 5641
5597 5596 5596 5596 5596 5597 5597 5598 5599 5600 5601 5602 5603 5604 5605 5607 5608 5609 5610 5611 5613 5614 5615 5616 5616 5617 5617 5618 5620 5621 5622 5623 5624 5625 5627 5628 5630 5632
5588 5587 5587 5587 5587 5587 5588 5588 5589 5590 5591 5593 5594 5595 5596 5597 5599 5599 5600 5602 5603 5604 5605 5606 5606 5607 5608 5609 5610 5612 5612 5613 5614 5615 5617 5618 5620 5622
5579 5578 5578 5578 5578 5578 5578 5579 5580 5581 5582 5583 5584 5585 5586 5588 5589 5590 5591 5593 5594 5595 5595 5596 5597 5598 5599 5600 5601 5602 5603 5604 5605 5606 5607 5608 5610 5611